#timestamp,LO_Frequency,Hit 
1498154415.7,286046698.9,N
1498154435.5,286046701.7,N
1498154455.4,286046699.3,N
1498154475.2,286046703.1,N
1498154495.0,286046700.9,N
1498154495.9,286046700.9,N
1498154515.8,286046703.1,N
1498154535.6,286046703.2,N
1498154555.5,286046702.9,N
1498154575.3,286046703.4,N
1498154595.1,286046705.0,N
1498154615.9,286046704.5,N
1498154635.7,286046704.8,N
1498154655.5,286046705.0,N
1498154675.4,286046704.0,N
1498154695.2,286046705.0,N
1498154715.1,286046704.9,N
1498154716.0,286046704.9,N
1498154735.8,286046702.4,N
1498154755.6,286046705.1,N
1498154775.5,286046703.3,N
1498154795.3,286046702.3,N
1498154815.2,286046702.5,N
1498154835.9,286046702.1,N
1498154855.7,286046704.9,N
1498154875.6,286046702.9,N
1498154895.4,286046702.7,N
1498154915.2,286046704.9,N
1498154935.1,286046704.5,N
1498154936.0,286046704.5,N
1498154955.8,286046702.1,N
1498154975.7,286046702.6,N
1498154995.5,286046702.4,N
1498155015.3,286046700.7,N
1498155035.2,286046703.6,N
1498155055.0,286046701.4,N
1498155055.9,286046701.4,N
1498155075.8,286046701.8,N
1498155095.6,286046701.2,N
1498155115.4,286046702.5,N
1498155135.3,286046702.2,N
1498155155.1,286046702.1,N
1498155175.8,286046702.2,N
1498155195.7,286046705.1,N
1498155215.5,286046702.2,N
1498155235.4,286046702.4,N
1498155255.2,286046702.8,N
1498155275.0,286046704.7,N
1498155275.9,286046704.7,N
1498155295.8,286046704.0,N
1498155315.6,286046704.4,N
1498155335.4,286046705.2,N
1498155355.3,286046702.5,N
1498155375.1,286046704.4,N
1498155395.9,286046704.6,N
1498155415.7,286046705.1,N
1498155435.5,286046705.2,N
1498155455.4,286046704.6,N
1498155475.2,286046704.8,N
1498155495.0,286046705.2,N
1498155495.9,286046705.2,N
1498155515.8,286046703.0,N
1498155535.6,286046700.6,N
1498155555.5,286046703.5,N
1498155575.3,286046703.1,N
1498155595.1,286046704.8,N
1498155615.9,286046702.2,N
1498155635.7,286046702.6,N
1498155655.5,286046702.8,N
1498155675.4,286046702.8,N
1498155695.2,286046703.1,N
1498155715.1,286046705.0,N
1498155716.0,286046705.0,N
1498155735.8,286046703.4,N
1498155755.6,286046702.1,N
1498155775.5,286046702.4,N
1498155795.3,286046702.5,N
1498155815.1,286046702.5,N
1498155835.9,286046702.2,N
1498155855.7,286046702.7,N
1498155875.6,286046702.5,N
1498155895.4,286046702.6,N
1498155915.2,286046702.4,N
1498155935.1,286046702.1,N
1498155936.0,286046702.1,N
1498155955.8,286046704.5,N
1498155975.7,286046702.5,N
1498155995.5,286046705.0,N
1498156015.3,286046704.9,N
1498156035.2,286046704.6,N
1498156055.0,286046705.1,N
1498156055.9,286046705.1,N
1498156075.7,286046704.9,N
1498156095.6,286046705.7,N
1498156115.4,286046706.2,N
1498156135.3,286046704.0,N
1498156155.1,286046704.5,N
1498156156.0,286046704.5,N
1498156175.8,286046702.5,N
1498156195.7,286046704.3,N
1498156215.5,286046704.4,N
1498156235.3,286046704.6,N
1498156255.2,286046704.6,N
1498156275.0,286046702.6,N
1498156275.9,286046702.6,N
1498156295.8,286046702.5,N
1498156315.6,286046702.2,N
1498156335.4,286046702.5,N
1498156355.3,286046702.1,N
1498156375.1,286046705.0,N
1498156395.9,286046702.5,N
1498156415.7,286046704.8,N
1498156435.5,286046704.6,N
1498156455.4,286046702.9,N
1498156475.2,286046704.5,N
1498156495.0,286046702.5,N
1498156495.9,286046702.5,N
1498156515.8,286046704.3,N
1498156535.6,286046703.4,N
1498156555.5,286046702.5,N
1498156575.3,286046704.0,N
1498156595.1,286046705.0,N
1498156615.9,286046702.5,N
1498156635.7,286046700.5,N
1498156655.5,286046705.2,N
1498156675.4,286046705.1,N
1498156695.2,286046704.2,N
1498156715.1,286046704.4,N
1498156716.0,286046704.4,N
1498156735.8,286046706.8,N
1498156755.6,286046703.8,N
1498156775.5,286046704.9,N
1498156795.3,286046704.7,Y
1498156815.1,286047009.1,N
1498156835.9,286047006.6,N
1498156855.7,286047006.7,N
1498156875.6,286047006.9,N
1498156895.4,286047009.2,N
1498156915.2,286047008.9,N
1498156935.1,286047008.9,N
1498156936.0,286047008.9,N
1498156955.8,286047009.1,N
1498156975.6,286047009.0,N
1498156995.8,286047006.9,N
1498157015.6,286047006.5,N
1498157035.5,286047006.4,N
1498157055.3,286047006.2,N
1498157075.2,286047006.4,N
1498157095.9,286047007.0,N
1498157115.7,286047007.0,N
1498157135.6,286047007.6,N
1498157155.4,286047004.6,N
1498157175.2,286047006.2,N
1498157195.1,286047006.2,N
1498157196.0,286047006.2,N
1498157215.8,286047009.1,N
1498157235.7,286047008.8,N
1498157255.5,286047008.3,N
1498157275.3,286047008.7,N
1498157295.2,286047008.9,N
1498157315.0,286047008.8,N
1498157315.9,286047008.8,N
1498157335.7,286047006.7,N
1498157355.6,286047006.7,N
1498157375.4,286047006.5,N
1498157395.3,286047008.7,N
1498157415.1,286047009.0,N
1498157435.8,286047006.1,N
1498157455.7,286047009.1,N
1498157475.5,286047006.3,N
1498157495.4,286047007.2,N
1498157515.2,286047004.9,N
1498157535.0,286047007.5,N
1498157535.9,286047007.5,N
1498157555.8,286047006.3,N
1498157575.6,286047006.7,N
1498157595.5,286047007.3,N
1498157615.3,286047006.8,N
1498157635.1,286047004.6,N
1498157655.9,286047006.7,N
1498157675.7,286047009.2,N
1498157695.5,286047006.6,N
1498157715.4,286047006.5,N
1498157735.2,286047007.4,N
1498157755.1,286047006.7,N
1498157756.0,286047006.7,N
1498157775.8,286047007.3,N
1498157795.6,286047007.1,N
1498157815.5,286047004.5,N
1498157835.3,286047006.8,N
1498157855.1,286047007.1,N
1498157875.9,286047008.7,N
1498157895.7,286047006.4,N
1498157915.6,286047006.3,N
1498157935.4,286047006.2,N
1498157955.2,286047006.6,N
1498157975.1,286047006.1,N
1498157976.0,286047006.1,N
1498157995.8,286047007.9,N
